GFSNE_con_lsi_159.txt.gz
Lid_Strength_Index
2 3 3 3 3 3 4 4 6 7 6 4 5 4 3 2 4 3 4 5 5 4 4 4 4 3 2 1 0 0 0 1 1 1 1 1 1 1
2 2 3 3 3 3 3 3 4 6 7 4 4 4 4 5 4 4 4 7 7 6 5 5 4 4 3 2 1 1 1 1 1 1 1 2 2 2
1 2 2 2 3 2 3 3 4 5 6 5 4 3 5 5 6 6 5 5 6 8 7 6 5 5 4 4 3 3 2 2 2 2 2 3 3 2
2 2 2 2 3 3 2 3 4 4 5 6 5 4 5 4 5 6 7 7 6 9 8 7 6 6 6 5 5 5 4 4 4 4 4 4 3 3
1 2 2 2 2 2 2 3 3 4 4 5 5 4 3 7 7 8 7 8 9 10 8 8 6 6 6 6 6 7 7 7 7 6 6 6 5 4
1 1 1 2 2 2 2 3 3 4 4 5 5 5 5 10 7 8 13 14 11 12 10 9 8 8 7 7 8 9 9 8 8 7 7 7 6 5
5 1 1 3 6 4 2 2 3 3 4 5 5 5 12 15 10 9 8 9 11 11 12 11 10 9 9 8 10 10 9 8 8 8 8 7 7 6
8 5 3 6 6 8 7 6 3 3 4 4 4 6 6 8 8 8 8 15 14 15 12 13 12 12 11 10 10 10 9 9 9 8 8 7 7 7
9 8 6 4 5 2 5 8 7 7 5 2 4 5 5 6 7 9 9 10 9 13 12 12 14 13 13 13 11 10 10 10 10 9 8 8 8 8
8 7 7 7 5 4 3 2 2 4 5 4 3 3 3 4 7 8 9 9 15 15 12 12 15 13 16 15 11 11 10 10 10 9 9 9 9 9
8 8 7 7 8 7 6 6 4 4 4 6 6 5 5 6 6 8 12 13 14 16 14 16 18 18 16 16 14 11 10 10 10 10 9 9 10 10
9 9 9 7 8 8 7 7 7 6 5 10 8 6 7 6 9 7 8 11 12 17 16 13 18 17 18 18 16 12 11 11 10 10 10 10 11 12
10 9 9 8 8 8 8 8 9 8 7 7 7 7 7 7 8 8 7 8 11 13 15 13 16 17 17 20 17 14 13 12 12 11 10 11 11 13
12 10 9 8 8 8 9 8 8 9 10 8 7 6 7 9 9 9 9 10 7 8 14 11 16 15 19 19 19 19 14 13 13 13 13 11 11 13
13 12 11 9 8 8 8 8 9 9 9 10 9 7 6 8 10 13 14 14 15 14 14 12 14 14 13 16 19 17 17 16 15 15 15 14 14 15
13 13 13 10 9 9 9 9 9 8 8 8 8 8 9 12 11 12 13 13 14 17 14 12 14 13 14 16 16 17 16 18 16 15 15 15 15 15
17 16 14 12 10 9 9 9 9 9 9 9 9 9 10 12 11 12 12 13 13 15 16 17 15 15 15 17 17 16 16 17 16 16 17 17 17 16
19 20 20 20 20 19 17 10 9 10 10 10 10 10 11 12 12 12 12 13 13 14 15 16 17 18 18 18 16 16 16 17 17 17 16 18 18 18
20 21 20 20 21 20 20 19 17 10 10 10 10 11 11 12 12 12 12 13 13 14 15 16 16 15 18 19 19 16 17 18 18 17 17 17 18 19
22 23 22 22 21 22 22 21 20 19 13 11 11 11 11 12 12 12 12 13 13 14 15 16 15 15 15 15 20 17 15 18 18 18 18 20 19 18
24 24 24 23 22 22 22 22 21 20 19 18 12 12 12 12 13 12 12 13 13 13 15 16 15 15 17 18 20 20 18 16 15 17 20 21 22 23
25 25 25 25 24 24 23 23 22 21 21 21 20 15 12 12 13 13 13 13 13 14 14 15 17 18 17 16 19 21 20 18 16 17 17 19 21 24
26 26 26 26 25 26 26 25 24 23 22 22 22 20 19 12 13 13 13 13 13 13 14 18 18 17 17 17 20 21 23 21 20 20 20 18 18 18

GFSNE_con_lsi_162.txt.gz
Lid_Strength_Index
1 1 2 1 1 2 2 3 4 6 5 3 3 2 3 1 2 2 2 5 5 4 3 3 3 2 1 0 0 -0 0 -0 -1 -1 -1 -0 0 0
1 1 1 1 1 1 2 2 3 4 6 3 2 1 2 3 2 2 2 6 7 6 5 4 4 3 2 1 1 1 1 0 -0 -0 0 0 0 1
1 1 2 1 1 2 2 2 2 3 5 3 2 1 3 4 3 2 3 3 3 8 6 5 5 5 4 2 2 2 1 2 1 1 1 1 1 1
3 1 2 1 2 1 2 2 2 2 3 4 3 2 3 3 4 4 4 4 3 6 7 6 5 5 5 3 4 4 3 3 3 2 2 2 2 2
7 6 5 3 2 2 2 2 2 2 2 3 4 2 3 2 4 4 4 4 5 7 6 7 6 6 6 5 6 5 5 5 5 5 5 4 4 4
8 7 7 6 5 3 2 2 2 2 3 3 3 3 3 3 3 5 7 9 7 8 7 7 7 7 7 7 7 7 7 6 6 6 7 7 6 5
8 8 7 8 10 8 6 4 2 3 3 4 4 4 4 7 8 5 6 6 8 6 8 8 9 8 7 7 8 9 7 7 7 7 9 9 8 7
9 8 7 8 7 8 7 7 6 5 4 4 4 5 4 4 5 5 6 7 8 8 9 8 9 9 8 8 8 8 8 8 8 8 9 9 8 8
8 8 8 7 7 6 6 7 7 7 6 5 5 3 4 3 4 6 6 6 7 7 9 9 10 9 9 10 8 8 8 9 9 9 9 9 9 8
8 8 8 8 7 8 7 6 6 6 5 5 4 3 2 2 2 3 5 6 7 13 10 10 11 11 10 11 9 9 9 9 9 10 10 9 9 9
11 10 10 9 8 7 7 8 8 7 6 6 6 6 5 5 4 3 8 10 11 13 13 10 15 14 16 15 13 10 10 10 10 10 10 9 9 9
12 12 12 11 10 9 9 9 9 9 8 8 8 8 7 6 6 5 5 9 9 12 14 12 16 17 17 17 15 12 12 11 10 10 10 9 9 11
15 14 13 12 12 11 11 11 10 9 8 8 8 8 8 7 5 5 5 5 7 9 12 11 15 15 15 18 16 14 13 13 12 11 10 9 10 11
15 15 14 13 13 11 10 10 10 9 9 9 9 9 8 8 6 5 7 6 5 6 9 10 14 13 15 17 17 16 14 13 13 13 12 10 10 11
15 14 14 14 14 14 13 14 13 10 9 9 10 9 8 7 6 7 8 8 8 10 10 11 10 12 12 12 17 17 16 16 14 14 14 13 13 14
15 16 16 15 15 15 17 16 17 17 17 10 9 8 8 7 7 6 7 9 10 10 14 11 10 11 12 12 14 16 15 17 16 15 15 14 14 14
16 16 17 17 17 16 16 17 17 18 19 18 18 11 9 9 8 7 8 9 10 11 13 13 13 12 12 13 14 15 15 17 15 16 16 16 16 15
18 18 18 18 18 18 18 19 18 18 18 19 19 18 12 10 9 9 10 11 11 11 12 13 14 15 16 16 14 15 15 16 16 16 16 17 17 16
21 20 20 20 20 19 20 20 21 19 18 17 18 19 19 13 10 10 11 11 12 11 12 13 14 13 15 15 16 15 15 17 17 18 17 17 17 17
21 22 22 22 22 22 21 22 22 22 21 19 19 18 18 19 17 11 11 12 12 12 12 13 14 13 13 13 18 16 14 17 17 18 18 17 16 16
23 23 23 23 23 23 22 23 24 24 23 22 21 20 18 19 19 17 11 12 12 12 13 13 13 12 14 15 18 18 16 15 16 17 18 19 21 21
23 24 24 24 24 24 24 24 25 25 25 24 23 22 21 19 19 18 17 12 12 12 12 12 13 14 15 14 16 18 19 18 16 16 17 17 20 22
24 25 25 25 25 25 25 25 26 26 25 26 25 23 23 21 20 19 17 15 12 12 13 14 15 15 14 15 17 19 19 19 19 20 19 17 18 18

GFSNE_con_lsi_165.txt.gz
Lid_Strength_Index
1 1 1 1 1 1 1 2 4 6 6 3 3 1 0 1 2 2 2 4 5 4 4 3 3 3 2 1 0 -0 -0 -1 -0 -0 -1 -1 -1 -1
2 2 1 1 1 1 1 1 2 4 6 3 2 1 0 1 2 2 2 6 6 5 5 5 4 4 3 3 2 1 0 -0 -0 -0 -0 -1 -1 -1
6 6 5 4 4 2 1 1 2 2 5 3 2 1 1 1 2 2 3 2 2 7 6 5 5 5 4 4 3 2 1 1 1 0 -0 -0 0 -0
8 8 7 6 7 6 5 5 4 2 3 4 2 2 2 1 1 1 2 2 3 4 5 6 6 5 6 5 5 4 3 3 2 2 1 1 0 1
7 7 8 7 7 7 8 8 7 6 5 4 3 2 2 1 2 2 2 2 2 5 5 5 6 6 6 5 5 5 5 5 4 4 3 2 2 2
7 7 7 7 7 8 8 8 7 7 6 6 5 4 3 2 2 3 3 3 3 3 5 6 6 7 7 6 7 7 7 6 5 5 5 4 4 3
7 7 7 8 9 8 8 8 7 8 9 8 8 6 5 4 5 4 4 4 3 4 4 5 5 6 7 8 7 8 7 7 6 6 6 5 5 5
9 9 8 8 7 7 7 7 7 8 8 8 8 8 7 6 4 5 4 5 6 4 6 6 6 7 6 6 7 7 7 6 6 6 6 6 6 7
10 10 10 10 10 9 9 8 8 7 7 7 8 7 7 6 5 6 6 5 5 5 7 6 6 7 6 6 7 7 7 7 7 7 6 7 7 8
11 12 11 12 11 11 11 12 11 10 9 8 7 7 7 6 5 5 6 7 7 5 8 7 5 7 6 7 7 7 7 7 7 7 7 7 8 9
13 12 13 13 12 12 13 13 13 12 10 9 8 8 7 7 7 8 9 9 9 7 7 7 5 7 11 9 8 8 8 8 7 7 8 8 9 9
14 14 13 14 13 12 14 14 15 14 13 13 11 10 9 8 7 8 8 9 8 8 6 8 8 12 13 15 13 13 10 9 9 8 9 9 9 10
16 16 15 14 13 13 13 14 15 14 14 14 13 11 10 9 8 8 7 7 7 7 5 7 9 13 10 13 15 14 12 10 10 10 9 9 9 10
17 17 16 15 14 14 15 14 14 15 16 17 17 16 15 13 10 8 7 7 5 5 4 6 7 8 10 12 13 15 13 11 11 11 11 10 10 10
17 17 16 16 16 16 16 16 17 18 18 19 19 18 17 16 15 13 8 7 7 5 5 4 6 7 8 9 9 15 14 13 12 12 12 12 12 12
17 18 18 18 17 18 18 17 17 17 18 18 18 18 17 16 16 15 15 9 8 7 6 6 7 6 9 8 9 13 13 15 13 13 12 12 11 12
20 22 22 21 21 20 20 18 17 17 18 18 18 18 17 17 17 15 16 15 11 9 8 9 9 7 7 8 10 11 13 14 14 14 14 14 14 14
22 23 23 22 22 21 21 21 19 20 19 19 18 18 18 18 18 17 16 16 16 11 9 8 10 11 12 11 10 11 13 13 15 14 14 15 16 16
23 23 23 23 22 22 22 22 22 21 21 21 21 20 20 20 20 19 17 16 17 17 11 9 10 10 12 13 12 12 13 13 15 15 14 14 15 16
22 23 24 23 23 24 23 24 23 23 23 23 22 22 21 21 22 21 19 19 18 17 16 9 10 10 11 12 12 13 13 13 14 15 15 16 16 15
23 24 24 24 24 24 24 24 24 25 25 24 24 23 23 23 23 22 20 19 18 17 17 14 9 9 10 13 15 16 14 13 13 14 15 17 19 19
23 24 24 24 24 25 25 25 25 26 25 25 25 24 23 23 23 22 21 21 20 18 17 15 10 10 11 13 13 16 15 15 14 14 14 15 19 21
24 24 24 24 24 25 26 26 26 26 26 25 25 25 25 25 23 20 21 21 20 19 19 17 16 11 11 13 13 16 17 16 16 16 16 15 15 16

GFSNE_con_lsi_168.txt.gz
Lid_Strength_Index
5 6 5 4 4 3 1 2 4 6 5 3 3 1 1 1 2 1 1 4 4 3 3 2 2 2 1 1 1 1 -0 -0 -0 -0 -0 -0 -1 -1
7 7 7 6 6 6 5 5 4 4 6 3 2 1 1 1 1 2 1 5 5 4 4 3 3 3 3 2 2 2 1 1 0 -0 -0 -0 -0 -1
8 8 8 7 7 6 5 7 7 7 8 7 5 4 2 2 1 0 2 1 1 5 5 4 4 4 4 3 3 2 2 2 2 1 0 0 -0 -0
9 9 8 7 7 7 8 8 8 7 8 9 7 6 5 4 2 1 1 1 1 3 4 4 4 4 5 4 4 4 4 3 3 3 2 1 1 0
9 9 9 8 9 9 8 9 8 8 8 9 10 8 8 6 5 3 1 1 1 3 3 3 4 4 4 4 5 5 5 5 5 5 4 3 2 1
9 9 10 10 10 10 10 9 9 10 9 10 10 9 9 7 6 7 7 4 3 1 2 4 4 4 5 4 5 6 6 6 5 5 5 5 4 3
11 11 11 11 10 10 10 11 11 11 11 10 10 10 10 9 8 6 7 7 6 3 3 2 2 3 3 5 6 7 6 6 6 6 6 6 5 5
13 12 12 11 12 10 10 10 11 12 12 12 13 12 11 9 9 9 9 9 10 6 5 6 5 3 3 3 4 5 6 6 6 6 7 6 6 6
13 13 13 13 12 12 11 11 12 11 11 12 13 13 13 12 11 11 10 10 10 9 8 10 7 7 4 3 5 5 5 6 6 6 7 6 6 6
14 14 14 14 13 13 13 14 13 13 13 12 12 13 12 11 11 11 11 10 10 9 8 10 8 8 5 3 5 5 5 6 6 7 7 7 7 7
14 14 14 15 14 13 14 15 15 15 13 13 12 12 12 11 11 10 11 12 12 11 9 9 9 8 6 5 4 5 6 5 5 6 7 7 7 7
16 15 14 15 14 14 15 16 17 16 16 16 16 15 15 14 13 13 13 15 13 11 10 9 9 8 9 5 5 5 4 6 6 5 7 7 7 7
17 17 17 15 15 15 15 17 17 16 17 18 19 18 17 17 16 16 15 15 16 16 12 9 9 9 8 8 7 8 7 7 7 7 6 7 7 7
18 17 17 16 16 16 17 16 16 17 19 21 21 20 20 19 18 17 16 15 15 15 14 13 10 9 9 9 9 6 9 9 9 9 8 7 8 8
17 16 16 17 17 18 18 18 19 20 22 23 23 22 21 19 18 17 16 16 15 14 13 13 11 9 8 9 9 7 8 10 9 9 9 9 9 9
17 19 19 19 19 20 21 21 21 21 22 22 22 22 20 19 19 17 18 18 18 17 14 13 13 11 9 8 8 8 6 9 10 10 9 9 9 9
19 24 24 24 24 23 23 23 22 22 23 22 22 22 21 20 19 18 18 18 18 18 18 16 14 13 13 8 9 7 7 9 9 10 10 10 10 10
27 27 25 24 24 24 25 25 24 23 22 22 22 22 23 22 21 20 19 20 19 18 18 17 16 15 14 10 7 9 8 9 9 10 10 11 11 10
32 30 25 25 25 24 25 25 25 23 22 23 23 24 23 23 23 23 22 21 21 18 18 17 17 16 17 18 10 7 9 9 10 10 10 11 11 12
31 32 29 26 25 25 25 25 25 25 24 24 24 24 24 24 24 24 23 23 22 19 19 18 18 17 18 18 17 15 9 9 11 11 11 12 13 12
32 31 30 26 26 26 26 26 26 26 26 26 26 25 25 25 25 24 24 23 21 20 20 20 18 16 16 14 14 10 9 10 10 10 12 13 15 16
27 31 28 28 27 27 27 27 27 27 27 27 26 26 25 25 25 25 24 24 20 20 19 19 18 18 18 17 15 10 11 12 10 11 11 12 15 18
26 31 27 26 26 27 27 27 28 27 27 27 27 26 26 26 25 24 24 22 20 20 20 20 19 19 19 18 16 12 13 14 13 13 14 13 14 13

GFSNE_con_lsi_171.txt.gz
Lid_Strength_Index
9 8 8 7 6 6 5 5 6 7 7 4 4 3 3 2 1 -0 0 3 2 2 2 2 1 1 1 1 1 0 -0 -0 -1 -0 -0 -1 -0 -0
9 9 9 8 7 7 8 7 7 8 9 7 7 5 4 4 4 4 2 4 3 3 2 3 2 2 1 1 1 1 0 0 0 -0 -0 -0 -0 -0
9 9 9 8 9 9 9 8 9 9 10 10 9 8 8 8 7 6 5 5 3 3 3 3 3 3 3 2 2 2 2 1 1 1 1 0 0 0
10 10 10 10 10 10 10 10 10 9 11 12 10 10 9 8 7 7 6 6 5 4 5 5 3 3 3 3 3 3 3 3 3 3 2 2 1 1
11 12 12 12 12 12 11 11 11 11 11 11 12 10 10 9 9 8 8 7 6 6 5 5 5 4 3 3 3 4 4 4 4 4 4 4 3 2
12 12 12 12 13 12 12 13 12 12 12 13 13 12 12 11 10 11 11 9 9 7 6 6 5 4 3 4 4 5 5 5 4 5 5 5 4 4
13 13 13 13 12 12 12 13 13 13 13 13 14 13 13 13 13 12 13 12 11 10 9 8 8 8 7 6 6 6 3 4 5 5 6 6 5 5
14 14 13 13 13 12 12 12 12 13 13 14 14 14 13 13 14 14 14 14 15 11 11 11 9 9 8 7 6 5 5 5 2 4 5 5 6 6
15 14 14 14 14 14 13 13 13 12 12 14 15 15 15 14 14 15 14 14 14 12 11 12 10 10 9 7 6 5 5 4 4 3 3 5 6 6
15 15 15 15 15 14 15 15 15 14 14 14 14 14 15 14 14 14 15 15 14 13 11 13 10 11 9 8 6 6 5 5 4 4 2 3 5 6
16 16 16 17 15 14 16 17 17 17 15 14 14 15 15 15 14 16 19 19 20 18 16 16 13 13 12 11 9 7 6 6 5 4 4 2 3 5
17 16 16 16 15 15 16 17 19 18 17 18 18 18 17 16 15 17 17 20 20 20 15 17 17 16 17 14 11 9 8 7 6 5 4 3 3 3
17 17 17 15 15 15 16 18 18 17 19 20 20 20 20 19 19 18 18 19 20 20 17 17 18 18 17 17 15 12 9 8 7 6 5 4 3 3
18 17 17 16 16 17 18 17 17 19 22 23 23 23 22 22 21 20 19 18 18 18 17 17 19 18 18 19 18 14 12 9 8 7 7 5 4 4
17 16 17 17 18 19 19 19 21 22 24 25 25 24 23 22 21 21 20 19 18 17 16 16 15 16 16 18 19 17 16 14 10 8 7 7 6 5
17 21 19 20 21 21 22 22 23 23 23 24 24 23 22 22 22 21 22 21 21 20 16 14 13 14 17 16 17 18 16 16 11 9 8 7 6 6
25 26 25 24 25 24 24 24 23 23 24 23 24 24 23 23 22 21 21 22 23 22 20 18 15 14 14 14 17 15 14 14 12 8 8 8 7 6
31 32 27 26 26 25 25 25 24 24 24 24 24 24 24 24 24 23 22 22 23 22 21 20 18 18 17 16 12 15 16 15 14 14 10 8 9 7
35 34 30 27 26 25 25 25 26 24 24 24 25 25 25 25 25 25 23 23 23 23 22 20 18 19 21 22 18 13 15 16 16 15 14 8 9 8
34 34 32 30 28 27 26 26 26 26 26 26 26 26 26 26 26 25 25 25 24 24 23 20 19 19 20 21 21 18 12 13 14 12 12 8 7 8
33 32 30 30 28 28 27 27 28 27 27 28 28 28 27 27 27 26 25 25 24 24 24 21 18 16 17 17 19 20 17 12 11 11 8 9 9 12
31 31 30 31 31 30 30 30 29 29 29 29 28 28 28 27 27 27 26 26 25 24 22 19 18 18 18 19 20 20 19 16 13 8 7 8 10 14
29 30 30 30 31 32 32 31 30 29 29 29 29 29 28 28 27 27 27 26 25 23 20 20 19 18 19 20 19 19 19 18 12 10 10 10 9 9